Location: Aragüita
(10.0436°N, 67.8028°W)
Time: 14:46:58
(UTC+00:00)

Cosmos 1862 Rocket - Pass Details

Date: 17 January 2026
Orbit: 596 x 627 km, 82.5° (Epoch: 8 February)

Event Time Altitude Azimuth Distance (km) Brightness Sun altitude
Rises 22:58:15 0° 178° (S) 2,902 7.3 -7.4°
Reaches altitude 10° 23:00:29 10° 175° (S) 1,996 6.4 -7.9°
Maximum altitude 23:04:53 66° 93° (E) 685 3.6 -8.9°
Drops below altitude 10° 23:09:16 10° 12° (NNE) 1,991 5.9 -10.0°
Sets 23:11:30 0° 9° (N) 2,894 6.7 -10.5°
